GEFSNE_con_probscp_234.txt.gz
Probability
12 11 11 12 11 10 7 7 8 6 2 3 5 6 4 3 2 4 5 2 0 0 0 0 0 0 0 0 0 0 0 0 0 0 0 0 0 0
12 11 12 12 12 11 9 9 10 8 5 4 6 6 5 3 4 5 5 2 0 0 0 0 0 0 0 0 0 0 0 0 0 0 0 0 0 0
14 12 13 14 14 13 12 12 12 11 7 5 5 7 7 7 6 6 4 1 1 0 0 0 0 0 0 0 0 0 0 0 0 0 0 0 0 0
16 16 15 16 17 16 14 13 13 12 8 6 6 7 8 9 8 6 2 1 1 0 0 0 0 0 0 0 0 0 0 0 0 0 0 0 0 0
19 18 16 16 17 18 16 13 12 11 10 9 8 7 6 7 8 6 3 2 1 0 0 0 0 0 0 0 0 0 0 0 0 0 0 0 0 0
19 16 13 12 12 15 15 13 11 10 10 10 8 6 4 5 6 5 4 3 2 0 0 0 0 0 0 0 1 1 0 0 0 0 0 0 0 0
14 11 9 7 7 8 10 10 8 9 10 9 8 6 4 4 4 3 2 1 1 0 0 0 0 1 1 1 2 1 0 0 0 0 0 0 0 0
13 11 9 7 6 5 5 4 4 6 8 9 8 7 4 3 2 1 0 0 0 0 0 0 1 2 2 3 2 1 0 0 0 0 0 0 0 0
16 15 11 8 7 6 4 2 2 3 4 6 6 5 3 1 0 0 0 0 0 0 0 0 1 3 3 3 2 1 0 0 0 0 0 0 0 0
17 17 14 9 7 6 6 6 5 4 3 3 3 3 2 1 0 1 1 0 0 0 0 1 2 3 4 3 2 1 0 0 0 0 0 0 0 0
16 16 13 10 7 6 7 9 8 6 4 2 1 1 2 1 1 1 1 1 1 1 1 2 3 3 3 3 2 1 0 0 0 0 0 0 0 0
15 14 11 8 7 6 8 10 10 8 7 5 3 2 3 3 2 2 2 3 3 3 3 3 3 3 3 3 2 1 0 0 0 0 0 0 0 0
13 12 9 6 4 4 5 7 8 8 8 8 6 5 5 6 6 4 4 5 5 4 3 3 3 3 3 3 1 0 0 0 0 0 0 0 0 0
10 9 7 4 1 1 2 3 4 5 7 8 6 5 6 7 8 7 5 4 5 5 4 3 3 3 3 2 1 0 0 0 0 0 0 0 0 0
6 5 4 2 1 0 1 1 1 3 5 6 5 5 6 8 9 9 6 4 4 4 3 3 3 3 3 1 0 0 0 0 0 0 0 0 0 0
4 4 3 3 2 2 2 2 2 3 4 5 4 5 7 9 9 8 6 4 3 3 3 3 3 3 2 1 0 0 0 0 0 0 0 0 0 0
3 4 5 5 5 5 5 5 5 4 4 5 5 5 7 8 6 5 4 3 3 3 3 3 3 3 1 0 0 0 0 0 0 0 0 0 0 0
3 4 5 6 6 6 6 6 6 6 6 6 5 5 5 5 4 3 3 3 3 3 3 3 3 2 1 0 0 0 0 0 0 0 0 0 0 0
3 3 4 4 5 6 6 6 6 6 6 6 5 4 3 3 3 3 3 3 3 3 3 3 3 2 1 0 0 0 0 0 0 0 0 0 0 0
3 3 3 3 4 5 5 6 6 6 6 6 5 4 3 3 3 3 3 3 3 3 3 3 3 2 1 0 0 0 0 0 0 0 0 0 0 0
2 2 2 2 3 4 4 4 5 6 6 5 4 3 3 3 3 3 3 3 3 3 3 3 2 1 0 0 0 0 0 0 0 0 0 0 0 0
1 1 1 2 2 2 2 3 4 4 4 4 3 3 3 3 3 3 3 3 3 3 2 1 1 0 0 0 0 0 0 0 0 0 0 0 0 0
1 1 0 1 1 0 0 1 3 3 3 3 3 3 3 3 3 3 3 3 3 3 1 0 0 0 0 0 0 0 0 0 0 0 0 0 0 0

GEFSNE_con_probscp_240.txt.gz
Probability
0 0 0 1 1 0 0 1 1 1 0 0 1 0 0 0 0 0 0 0 0 0 0 0 0 0 1 2 2 2 2 2 2 2 1 0 0 0
0 0 1 2 1 0 0 1 2 2 1 0 1 0 0 0 0 0 0 0 0 0 0 0 0 0 0 1 1 1 1 1 1 1 0 0 0 0
2 2 2 2 1 0 0 1 2 2 1 0 0 0 0 0 0 0 0 0 0 0 0 0 0 0 0 0 0 0 0 0 0 0 0 0 0 0
5 5 3 1 0 0 0 1 1 1 0 0 0 0 0 0 0 0 0 0 0 0 0 0 0 0 0 0 0 0 0 0 0 0 0 0 0 0
9 8 6 4 2 1 1 1 0 0 0 0 0 0 0 0 0 0 0 0 0 0 0 0 0 0 0 0 0 0 0 0 0 0 0 0 0 0
10 10 9 8 6 4 2 1 0 0 0 0 0 0 0 0 0 0 0 0 0 0 0 0 0 0 0 0 0 0 0 0 0 0 0 0 0 0
8 9 9 9 7 5 2 1 1 2 1 1 0 0 0 0 0 0 0 0 0 0 0 0 0 0 0 0 0 0 0 0 0 0 0 0 0 0
6 7 7 6 5 4 2 1 1 2 2 2 1 1 1 1 0 0 0 0 0 0 0 0 0 0 0 0 0 0 0 0 0 0 0 0 0 0
6 6 6 4 4 3 2 1 1 1 2 2 2 2 2 1 0 0 0 0 0 0 0 0 0 0 0 0 0 0 0 0 0 0 0 0 0 0
8 7 6 5 4 3 3 2 2 1 1 1 1 1 1 1 0 0 0 0 0 0 0 0 0 0 0 0 0 0 0 0 0 0 0 0 0 0
8 7 6 4 3 3 3 2 2 2 1 1 0 0 0 0 0 0 0 0 0 0 0 1 1 1 1 1 0 0 0 0 0 0 0 0 0 0
5 6 5 4 3 3 2 1 1 2 3 2 1 1 1 0 0 0 0 0 0 0 1 2 2 2 2 1 0 0 0 0 0 0 0 0 0 0
4 4 5 4 3 2 1 0 1 2 3 3 3 2 2 1 1 1 0 0 0 0 1 2 3 3 3 2 1 0 0 0 0 0 0 0 0 0
2 3 3 3 2 1 0 0 0 1 3 3 3 4 4 3 3 2 1 1 0 0 1 2 3 3 3 3 2 1 0 0 0 0 0 0 0 0
1 1 1 1 1 0 0 0 0 1 2 3 4 4 5 4 4 3 3 2 1 0 1 2 3 3 3 3 2 1 0 0 0 0 0 0 0 0
0 0 0 0 0 0 1 1 1 1 2 3 3 4 4 4 3 4 4 3 2 1 2 3 3 3 3 3 2 1 0 0 0 0 0 0 0 0
0 0 0 0 0 1 2 2 2 2 3 3 3 3 3 3 3 3 3 2 1 1 2 3 3 3 3 2 1 0 0 0 0 0 0 0 0 0
0 0 0 0 0 1 3 3 3 3 3 3 3 3 3 3 1 1 2 1 1 1 3 3 3 3 2 1 0 0 0 0 0 0 0 0 0 0
0 0 0 0 1 2 3 3 3 3 3 3 3 3 3 2 1 0 1 1 1 2 3 3 3 3 3 2 1 0 0 0 0 0 0 0 0 0
0 0 0 0 1 2 3 2 2 2 2 2 2 2 3 2 1 1 1 1 2 3 3 3 3 3 3 2 1 0 0 0 0 0 0 0 0 0
0 0 0 0 1 1 1 1 1 1 1 1 0 1 2 2 2 2 2 2 3 3 3 3 3 2 1 1 0 0 0 0 0 0 0 0 0 0
0 0 0 0 0 0 0 0 0 0 0 0 0 0 1 1 2 3 3 3 3 3 3 2 1 1 0 0 0 0 0 0 0 0 0 0 0 0
0 0 0 0 0 0 0 0 0 0 0 0 0 0 0 0 1 2 3 3 3 3 3 1 0 0 0 0 0 0 0 0 0 0 0 0 0 0

GEFSNE_con_probscp_246.txt.gz
Probability
3 3 3 2 1 1 1 3 3 1 0 0 0 1 2 3 2 1 0 0 0 0 0 0 0 0 0 0 0 0 0 0 0 0 0 0 1 1
1 2 2 2 1 1 2 3 3 2 0 0 0 0 1 2 2 2 1 0 0 0 0 0 0 0 0 0 0 0 0 0 0 0 0 0 0 1
1 1 2 2 2 2 3 3 3 2 1 1 1 0 0 0 1 2 1 0 0 0 0 0 0 0 0 0 0 0 0 0 0 0 0 0 0 0
2 2 2 2 2 2 2 3 3 3 2 2 2 1 0 0 0 1 1 0 0 0 0 0 0 0 0 0 0 0 0 0 0 0 0 0 0 0
1 3 4 3 2 2 2 3 3 3 3 3 2 1 0 0 0 0 0 0 0 0 0 0 0 0 0 0 0 0 0 0 0 0 0 0 0 0
0 2 4 4 2 2 4 5 3 2 3 3 2 1 1 1 1 1 0 0 0 0 0 0 0 0 0 0 0 0 0 0 0 0 0 0 0 0
1 1 2 2 1 2 4 4 3 3 3 2 1 0 1 2 2 2 1 0 0 0 0 0 0 0 0 0 0 0 0 0 0 0 0 0 0 0
3 2 2 1 1 1 1 2 2 2 2 2 1 0 0 1 3 3 2 1 1 1 0 0 0 0 0 0 0 0 0 0 0 0 0 0 0 0
6 6 5 4 2 1 0 0 1 1 1 2 1 1 1 1 2 3 3 2 2 2 1 0 0 0 0 0 0 0 0 0 0 0 0 0 0 0
9 8 5 4 2 1 0 0 0 1 1 1 2 2 2 1 2 3 3 3 2 2 2 1 0 1 1 0 0 0 0 0 0 0 0 0 0 0
8 6 3 1 0 0 0 0 0 1 1 1 2 2 2 1 2 3 3 3 1 1 1 2 2 2 2 1 0 0 0 0 0 0 0 0 0 0
6 4 2 0 0 0 0 0 0 0 0 0 1 1 1 1 1 2 3 3 2 1 1 2 3 3 3 2 1 0 0 0 0 0 0 0 0 0
4 3 2 1 0 0 0 0 0 0 0 1 1 1 1 1 2 3 3 3 3 3 3 3 3 3 3 3 2 1 0 0 0 0 0 0 0 0
2 2 1 1 0 0 0 0 0 0 1 2 2 2 3 3 3 4 4 3 4 4 4 4 3 3 3 3 3 2 1 0 0 0 0 0 0 0
1 0 0 0 0 0 0 0 1 1 1 2 2 3 4 4 4 4 5 4 4 4 4 4 3 3 3 3 3 3 2 1 0 0 0 0 0 0
0 0 0 0 0 0 0 0 1 2 2 1 2 2 3 4 4 4 4 5 5 5 5 5 4 4 3 3 3 3 3 1 0 0 0 0 0 0
0 0 0 0 0 0 0 0 1 2 1 0 1 1 2 2 2 3 3 4 5 5 5 6 6 5 4 4 3 3 3 2 1 0 0 0 0 0
0 0 0 0 0 0 0 0 0 0 0 0 0 1 2 2 2 2 3 3 3 4 5 5 5 5 5 5 4 3 3 2 1 0 0 0 0 0
0 0 0 0 0 0 0 0 0 0 0 0 0 1 2 2 2 2 2 2 2 3 4 4 4 4 4 4 4 2 2 1 0 0 0 0 0 0
0 0 0 0 0 0 0 0 0 0 0 0 0 0 1 2 1 1 1 1 1 1 2 2 2 3 3 3 2 1 0 0 0 0 0 0 0 0
0 0 0 0 0 0 0 0 0 0 0 0 0 0 0 0 1 1 0 0 0 0 0 1 1 1 2 2 1 0 0 0 0 0 0 0 0 0
0 0 0 0 0 0 0 0 0 0 0 0 0 0 0 0 0 0 0 0 0 0 0 0 0 0 1 1 0 0 0 0 0 0 0 0 0 0
0 0 0 0 0 0 0 0 0 0 0 0 0 0 0 0 0 0 0 0 0 0 0 0 0 0 0 1 0 0 0 0 0 0 0 0 0 0

GEFSNE_con_probscp_252.txt.gz
Probability
8 6 5 4 5 7 8 6 4 3 1 1 2 2 1 0 0 0 0 0 0 0 0 0 0 0 0 0 0 0 0 0 0 0 0 0 1 1
7 5 4 5 6 9 10 8 6 4 2 3 3 2 2 1 0 0 0 0 0 0 0 0 0 0 0 0 0 0 0 0 0 0 0 0 0 1
5 6 7 9 10 12 12 11 9 6 5 5 4 3 2 2 1 1 1 0 0 0 0 0 0 0 0 0 0 0 0 0 0 0 0 0 0 0
7 10 12 14 15 14 13 12 11 9 8 7 6 4 3 3 3 2 2 1 0 0 0 0 0 0 0 0 0 0 0 0 0 0 0 0 0 0
12 16 18 18 18 16 12 11 12 12 11 10 7 4 3 3 3 2 1 1 0 0 0 0 0 0 0 0 0 0 0 0 0 0 0 0 0 0
15 18 19 17 17 14 10 10 13 14 14 13 9 5 3 2 2 1 0 0 0 0 1 1 1 1 0 0 0 0 0 0 0 0 0 0 0 0
14 16 16 14 11 8 6 7 10 13 14 13 10 8 5 3 2 1 0 0 0 0 1 2 2 2 1 1 0 0 0 0 0 0 0 0 0 0
14 14 13 11 7 4 3 3 5 8 10 9 9 9 7 5 3 2 1 1 0 0 1 2 3 4 3 2 1 0 0 0 0 0 0 0 0 0
15 15 14 10 7 5 4 3 2 3 5 6 6 7 8 7 5 3 2 2 1 1 2 2 3 4 4 3 1 0 0 0 0 0 0 0 0 0
16 15 13 9 6 6 5 4 4 3 3 3 3 5 6 6 4 3 3 3 2 2 4 4 4 5 5 4 2 0 0 0 0 0 0 0 0 0
15 13 11 8 5 4 5 5 4 3 3 2 2 3 4 3 2 2 3 3 3 3 5 6 6 6 6 5 4 2 1 0 0 0 0 0 0 0
13 11 8 6 4 3 4 5 4 3 3 3 2 2 3 3 2 3 4 4 3 3 4 6 6 6 6 6 6 5 4 2 1 0 0 0 0 0
13 10 7 3 1 1 2 4 3 3 3 3 3 3 4 5 6 6 7 6 5 4 4 6 6 6 6 6 6 6 6 5 4 2 1 0 0 0
11 9 4 1 0 0 0 1 1 1 3 3 3 3 5 7 8 8 8 7 7 6 5 5 6 6 6 6 6 6 6 6 6 5 3 1 1 0
8 5 2 0 0 0 0 0 0 1 2 3 3 3 4 6 7 7 7 7 7 6 5 5 6 6 6 6 6 6 6 6 6 6 5 4 2 1
4 3 1 0 0 0 0 0 0 1 2 3 3 3 3 4 4 5 6 6 5 4 5 6 6 6 6 6 6 6 6 6 6 6 6 5 4 2
3 3 2 1 0 1 2 1 1 0 1 2 3 3 3 2 3 3 4 4 2 1 3 4 5 5 5 6 6 6 6 6 6 6 6 5 5 4
3 4 4 2 1 2 2 2 1 1 1 1 2 2 1 1 1 1 2 2 1 0 1 1 2 2 3 3 4 3 3 3 4 4 3 3 3 2
2 4 4 3 2 1 1 1 1 1 1 1 1 1 0 0 0 0 0 0 0 0 0 0 0 1 1 1 2 1 1 1 2 2 1 1 1 0
1 2 3 3 2 1 0 0 0 0 0 0 0 0 0 0 0 0 0 0 0 0 0 0 0 1 0 0 1 1 0 0 1 1 0 0 0 0
1 1 1 2 2 1 0 0 0 0 0 0 0 0 0 0 0 0 0 0 0 0 0 0 0 0 0 0 1 1 0 0 0 0 0 0 0 0
1 2 1 1 1 1 0 0 0 0 0 0 0 0 0 0 0 0 0 0 0 0 0 0 0 0 0 0 1 1 0 0 0 0 0 0 0 0
3 3 2 1 1 0 0 0 0 0 0 0 0 0 0 0 0 0 0 0 0 0 0 0 0 0 0 0 0 0 0 0 0 0 0 0 0 0

GEFSNE_con_probscp_258.txt.gz
Probability
10 13 13 7 4 5 7 7 6 4 2 1 1 4 6 6 6 5 5 2 0 0 0 0 0 0 0 0 0 0 0 0 0 0 0 0 0 0
10 11 11 7 4 4 5 8 8 7 5 3 3 3 5 6 7 6 5 3 1 0 0 0 0 0 0 0 0 0 0 0 0 0 0 0 0 0
13 12 10 8 5 4 6 9 11 11 8 6 5 5 5 6 8 7 5 3 1 0 0 0 0 0 0 0 0 0 0 0 0 0 0 0 0 0
17 15 11 8 8 7 7 11 13 12 10 8 7 6 6 6 7 7 5 2 1 0 0 0 0 0 0 0 0 0 0 0 0 0 0 0 0 0
18 16 12 9 11 11 10 12 13 13 11 9 7 6 6 6 7 7 5 3 2 1 0 0 0 0 0 0 0 0 0 0 0 0 0 0 0 0
19 17 14 12 11 11 12 13 14 14 11 8 6 6 6 6 7 6 3 3 4 2 1 1 1 0 0 0 0 0 0 0 0 0 0 0 0 0
18 16 14 12 10 9 10 12 13 13 11 8 7 6 6 6 6 4 2 1 3 2 2 2 2 1 1 1 0 0 0 0 0 0 0 0 0 0
19 17 14 13 11 8 6 6 8 9 8 8 9 9 8 7 5 4 2 1 2 2 2 2 3 3 3 3 1 0 0 0 0 0 0 0 0 0
23 22 18 16 14 10 6 3 4 4 4 6 9 9 8 7 6 4 3 2 3 3 3 2 3 3 3 3 2 1 0 0 0 0 0 0 0 0
24 24 22 20 16 11 7 5 5 3 1 2 5 6 6 5 5 4 3 3 4 4 3 3 3 3 3 3 2 1 0 0 0 0 0 0 0 0
23 22 22 19 13 7 6 6 6 5 3 1 2 2 2 2 3 3 3 3 3 3 3 3 4 4 4 4 3 2 1 0 0 0 0 0 0 0
21 20 17 13 7 3 3 5 6 6 5 3 2 1 1 2 2 2 3 2 1 2 2 3 5 5 5 5 4 3 2 1 0 0 0 0 0 0
19 17 13 7 3 1 1 2 3 4 4 3 3 2 3 3 4 4 4 3 2 2 2 4 4 5 5 5 4 4 4 4 2 1 0 0 0 0
14 12 8 3 1 0 0 0 0 1 1 1 2 3 4 4 4 5 5 4 4 4 4 4 4 4 4 4 3 3 4 5 4 3 2 1 0 0
6 5 3 1 0 0 0 0 0 0 0 1 2 3 4 4 3 4 4 4 5 5 4 4 3 3 3 3 3 2 3 4 4 4 4 2 1 0
2 1 1 1 1 1 1 0 0 1 1 2 3 4 3 3 3 3 3 3 4 3 3 2 2 3 3 2 1 1 1 2 3 4 4 3 1 1
2 2 2 3 3 3 3 2 2 2 3 3 4 4 2 2 3 3 3 3 2 1 1 1 1 1 2 1 0 0 0 1 2 2 2 2 2 2
3 3 4 5 5 5 6 5 5 4 4 4 4 3 1 1 3 3 2 1 1 0 0 0 0 0 0 0 0 1 0 0 1 1 1 1 1 1
3 3 4 5 6 6 7 7 6 6 5 4 3 2 1 1 2 2 1 0 0 0 0 0 0 0 0 0 0 0 0 0 0 0 0 0 0 0
3 3 3 4 5 6 7 7 7 6 6 5 4 3 1 0 1 1 0 0 0 0 0 0 0 0 0 0 0 0 0 0 0 0 0 0 0 0
3 3 4 5 5 6 7 7 6 6 6 6 4 3 2 0 0 0 0 0 0 0 0 0 0 0 0 0 0 0 0 0 0 0 0 0 0 0
3 4 5 6 6 6 6 6 5 4 5 5 5 3 1 0 0 0 0 0 0 0 0 0 0 0 0 0 0 0 0 0 0 0 0 0 0 0
3 4 6 6 6 6 6 6 4 4 4 4 4 3 1 0 0 0 0 0 0 0 0 0 0 0 0 0 0 0 0 0 0 0 0 0 0 0